Location: Cabeza Gorda
(40.0667°N, 4.9667°W)
Time: 19:24:39
(UTC+00:00)

Okean 2 - Pass Details

Date: 15 January 2026
Orbit: 515 x 525 km, 82.5° (Epoch: 11 February)

Event Time Altitude Azimuth Distance (km) Brightness Sun altitude
Exits shadow 06:04:46 28° 336° (NNW) 997 4.3 -17.9°
Maximum altitude 06:06:36 61° 266° (W) 589 3.1 -17.6°
Drops below altitude 10° 06:10:22 10° 185° (S) 1,735 6.0 -16.9°
Sets 06:12:29 0° 182° (S) 2,617 6.9 -16.5°
